Wind_Speed
16 17 18 18 18 19 19 20 20 21 22 22 23 23 23 23 24 24 24 24 25 25 26 27 27 27 28 28 29 30 30 31 31 30 30 31 33 33 34 34 35 37 36
15 16 16 17 17 19 20 20 21 22 22 22 22 22 22 23 23 24 23 24 25 26 26 27 27 27 27 28 29 29 30 31 31 31 31 31 32 32 33 33 34 34 35
15 15 16 17 18 19 20 20 20 21 21 21 21 22 21 22 22 22 23 24 25 25 25 26 27 28 27 28 28 29 30 30 31 31 30 31 31 32 32 33 33 33 35
14 15 15 17 18 19 19 20 20 21 21 20 21 21 21 21 21 22 23 24 24 24 26 27 27 28 28 28 29 29 30 30 30 31 31 31 31 31 32 32 33 33 34
14 14 15 17 18 19 19 20 19 20 20 20 21 21 21 21 21 23 24 24 24 25 26 27 28 28 29 29 29 30 30 30 31 31 31 31 32 32 33 33 33 33 33
13 14 16 18 19 20 19 19 19 19 20 20 20 21 21 21 22 23 23 24 25 25 26 27 28 28 28 28 29 30 30 29 29 30 31 32 33 34 34 33 32 33 33
13 15 16 17 19 19 18 18 19 19 19 20 21 21 21 21 22 23 24 25 25 25 26 27 28 28 28 28 28 29 29 29 29 30 31 32 32 32 33 32 32 33 33
14 15 17 18 19 18 18 18 18 18 19 19 20 21 22 22 23 24 25 25 25 26 26 26 27 27 27 27 27 27 27 27 28 28 29 29 30 30 30 30 31 32 31
14 15 17 17 18 18 18 17 17 17 18 19 20 21 22 23 23 24 25 25 25 25 25 25 26 27 26 26 26 25 26 26 26 26 26 26 26 26 27 27 27 28 29
14 15 16 16 17 18 17 17 18 18 18 20 21 22 23 24 24 24 24 24 25 25 25 25 25 25 25 25 24 24 24 23 23 24 24 23 23 23 23 24 24 24 26
14 15 15 15 16 17 16 17 17 18 19 20 21 22 24 24 24 24 24 24 25 25 25 26 25 25 25 24 24 23 23 22 22 23 23 22 22 22 22 23 22 23 24
13 14 15 15 16 16 16 17 18 19 19 20 20 22 23 24 24 24 24 24 25 25 25 26 25 25 25 25 24 23 23 22 22 22 22 22 22 22 22 23 23 22 23
13 14 14 15 16 16 16 17 18 19 19 20 20 22 23 24 24 25 25 25 26 26 26 26 26 26 25 25 24 23 23 22 22 22 23 22 22 22 21 21 21 20 21
12 13 14 15 15 15 16 17 18 19 20 21 22 23 24 25 25 26 26 26 26 27 26 26 26 25 25 24 24 23 23 23 23 23 23 22 21 21 21 20 19 19 19
11 13 13 14 15 15 16 17 18 19 20 22 23 24 25 26 26 27 27 27 27 27 27 27 26 26 26 25 25 24 24 23 23 24 23 22 21 21 19 18 17 16 16
11 12 12 13 14 14 15 17 18 19 20 22 24 25 26 27 26 27 27 27 27 27 27 26 26 25 25 24 24 24 24 23 23 24 23 21 20 19 17 16 16 16 16
10 11 11 13 13 14 15 17 18 19 21 23 25 26 27 27 27 27 28 28 28 28 27 26 26 25 25 24 24 24 24 24 24 23 22 20 19 18 17 16 16 16 15
9 10 11 12 13 14 16 17 17 19 21 23 25 26 27 28 28 28 28 29 29 29 28 27 26 26 25 26 25 25 25 25 24 24 22 21 19 18 17 15 14 14 14
8 9 10 11 13 14 16 17 18 19 21 23 24 26 27 28 29 29 29 29 29 28 28 27 27 26 26 26 26 25 25 25 25 25 23 21 19 18 17 15 14 14 13
7 8 9 11 13 14 16 17 18 19 21 22 24 25 27 29 30 30 30 30 30 29 27 27 27 26 26 26 25 25 26 25 25 24 23 21 20 19 17 15 14 13 12
7 8 9 10 12 14 15 17 18 20 21 23 24 25 27 29 30 30 29 30 30 29 28 28 27 27 27 26 26 26 25 25 25 24 23 21 20 19 18 16 14 13 12
7 8 9 11 12 13 15 16 18 19 21 23 24 26 27 29 30 30 30 30 31 30 29 29 28 28 27 27 26 26 25 25 25 25 23 22 20 19 17 16 15 13 13
7 8 9 11 12 13 14 16 17 19 21 23 25 26 28 29 31 31 31 32 31 30 29 29 28 28 28 27 27 26 26 25 25 25 24 23 21 19 17 16 15 14 13
7 8 9 10 11 12 14 16 17 19 20 22 24 26 27 29 30 31 31 32 32 31 30 29 29 29 29 29 28 27 27 26 25 25 25 23 22 20 18 16 15 14 14
7 8 9 10 11 12 14 15 16 18 20 22 23 25 27 29 30 31 31 32 32 32 31 31 30 30 30 29 29 28 27 26 25 25 25 24 22 21 19 17 15 15 14
7 8 9 10 11 12 13 15 16 18 19 21 23 25 27 28 29 30 31 32 32 32 31 31 31 31 30 30 29 28 28 27 26 26 25 24 23 21 19 18 17 16 15
Wind_Direction
295 297 300 302 302 302 303 304 304 304 302 304 306 305 305 303 303 302 300 301 301 301 300 300 297 294 292 290 289 287 286 285 284 283 282 279 277 273 270 269 266 263 260
298 302 305 306 305 307 307 307 306 307 306 306 309 310 309 307 304 303 302 303 303 302 301 300 299 297 295 293 292 290 289 287 286 285 282 281 277 274 272 269 267 265 261
301 306 308 309 309 310 310 311 310 310 311 311 313 313 312 310 308 306 307 307 305 303 303 302 300 299 297 296 295 293 291 289 288 286 283 281 278 276 273 270 268 266 262
307 308 311 313 314 314 313 314 314 313 314 314 316 315 315 315 313 311 311 309 308 307 307 305 302 300 299 298 296 295 293 290 289 286 285 282 279 277 275 271 268 266 262
311 313 314 315 316 316 316 317 318 318 317 318 318 317 318 318 317 315 315 312 311 310 309 307 304 301 300 299 298 296 294 292 289 286 284 283 280 278 275 272 268 265 263
315 317 320 319 317 318 318 319 322 323 321 320 321 321 321 320 320 320 318 315 313 312 310 309 308 305 304 302 301 301 298 295 291 288 285 282 280 277 274 270 268 265 265
318 319 322 324 323 322 322 322 325 327 326 325 324 324 324 323 322 322 319 317 315 315 314 312 310 310 309 306 305 304 302 299 294 291 288 285 282 280 276 272 269 267 266
320 321 322 323 328 329 328 327 329 328 327 327 328 327 327 326 325 324 322 321 318 317 316 315 314 313 314 312 310 308 306 303 299 296 293 289 285 282 278 275 271 269 266
322 323 326 326 329 331 330 329 331 333 332 331 330 329 329 329 328 326 326 325 324 323 321 321 321 320 318 316 315 313 310 307 303 301 298 295 290 284 280 277 275 272 267
324 326 328 329 332 333 333 334 335 336 334 333 334 333 331 331 330 330 330 328 327 326 326 327 327 326 323 321 320 318 314 310 306 304 302 299 295 291 286 281 278 274 269
327 329 332 334 335 336 336 337 339 339 338 336 335 335 335 335 335 334 334 333 333 331 330 331 331 331 328 325 323 321 317 314 311 308 306 304 300 296 290 285 282 276 272
328 333 337 339 339 339 339 340 341 341 341 339 337 337 339 340 339 337 337 337 337 337 335 334 333 333 331 329 327 325 323 321 319 316 313 310 303 299 294 288 283 276 272
330 335 339 343 343 343 344 345 344 344 344 343 342 343 343 343 343 341 341 341 340 340 339 337 337 336 335 333 332 330 328 327 325 322 318 315 309 305 299 292 287 280 274
334 339 343 347 349 349 349 349 348 348 349 348 347 347 347 347 346 346 345 342 341 340 341 340 339 338 338 337 336 333 332 330 327 325 322 318 314 311 304 296 291 284 278
336 343 346 349 351 353 354 353 353 353 354 354 354 352 352 350 349 347 347 345 344 344 344 343 342 341 341 339 338 337 336 335 332 330 328 324 320 316 310 303 298 291 286
339 345 348 351 354 356 356 356 357 358 358 357 357 357 356 355 353 351 350 350 349 348 347 347 346 345 345 344 343 342 341 339 337 335 333 328 324 321 316 309 304 301 295
342 348 351 353 356 357 358 358 358 360 1 1 2 1 359 358 357 355 354 354 353 352 351 351 351 350 350 348 347 346 344 342 340 339 338 336 332 328 323 315 310 307 300
346 350 353 355 356 357 358 360 1 2 3 3 3 3 1 1 359 357 356 356 355 355 355 354 353 353 352 351 350 348 346 345 345 344 343 343 341 337 332 325 318 313 307
344 348 352 355 356 357 360 1 2 3 3 3 3 3 2 2 1 0 359 358 357 356 356 355 354 354 353 353 353 352 351 351 351 351 352 350 348 345 342 337 331 326 320
342 347 351 353 355 357 360 2 3 3 3 3 3 3 2 1 1 0 359 359 358 357 357 356 356 356 356 356 356 357 357 356 356 356 355 353 353 352 349 345 342 340 337
340 344 347 350 354 358 360 1 1 2 3 3 4 4 2 2 2 1 360 360 360 0 0 360 0 0 359 358 359 359 358 359 359 359 358 357 356 354 352 349 347 348 347
341 344 346 349 352 355 357 359 1 2 2 2 4 3 3 3 4 4 4 3 3 3 3 3 3 3 2 1 0 0 0 0 1 2 1 360 358 357 356 356 356 357 356
339 341 344 347 349 352 355 357 359 1 1 2 3 4 4 5 6 7 7 7 6 5 5 5 5 5 4 3 3 2 2 2 3 4 4 3 4 3 2 1 359 0 360
332 334 339 343 345 348 352 355 357 359 360 1 2 3 4 5 6 7 7 8 9 8 7 6 6 6 5 4 3 3 3 3 5 5 5 5 4 3 3 4 3 360 359
330 333 337 340 343 347 350 353 355 356 358 359 360 2 3 4 4 5 7 8 9 9 8 7 6 5 4 4 4 4 4 4 4 4 4 4 4 3 3 4 3 360 357
327 330 332 335 340 344 347 350 352 353 355 357 358 -0 2 3 3 5 6 7 9 9 8 7 6 5 5 5 5 4 4 4 4 4 3 3 4 4 5 4 3 2 359
Height
5777 5776 5774 5771 5769 5766 5763 5760 5758 5754 5751 5748 5745 5742 5739 5736 5733 5730 5727 5724 5721 5717 5713 5710 5706 5702 5699 5696 5693 5690 5688 5686 5684 5683 5681 5679 5678 5677 5677 5676 5676 5677 5677
5774 5772 5770 5767 5765 5762 5759 5756 5753 5749 5746 5743 5740 5736 5733 5730 5727 5724 5721 5717 5714 5710 5707 5703 5699 5695 5691 5688 5685 5682 5679 5677 5675 5673 5672 5670 5668 5668 5667 5666 5666 5666 5667
5771 5769 5767 5764 5761 5758 5755 5751 5748 5745 5741 5738 5734 5731 5728 5724 5721 5718 5714 5711 5707 5704 5700 5696 5692 5688 5684 5680 5677 5673 5670 5668 5666 5664 5662 5660 5659 5657 5657 5656 5656 5656 5656
5768 5766 5763 5760 5757 5754 5750 5747 5744 5740 5736 5733 5730 5726 5723 5719 5716 5712 5709 5705 5701 5697 5693 5689 5684 5680 5677 5673 5669 5665 5662 5659 5657 5655 5652 5650 5649 5647 5646 5646 5645 5645 5646
5765 5762 5759 5756 5753 5750 5747 5743 5740 5736 5732 5729 5725 5722 5718 5714 5711 5707 5703 5699 5695 5691 5686 5681 5677 5672 5668 5664 5661 5657 5654 5650 5648 5645 5643 5641 5639 5637 5636 5635 5635 5634 5635
5762 5759 5756 5753 5750 5747 5743 5740 5736 5732 5729 5725 5721 5717 5713 5709 5705 5702 5697 5693 5688 5684 5679 5674 5669 5665 5660 5656 5652 5648 5645 5641 5638 5635 5633 5631 5629 5627 5625 5624 5623 5624 5624
5759 5756 5754 5750 5747 5743 5740 5736 5733 5729 5725 5722 5717 5713 5709 5705 5701 5697 5692 5687 5682 5677 5673 5667 5662 5657 5653 5648 5644 5640 5636 5632 5629 5626 5623 5620 5618 5617 5615 5614 5613 5612 5613
5757 5754 5751 5748 5744 5740 5737 5733 5730 5726 5722 5718 5714 5710 5706 5701 5696 5692 5687 5681 5676 5671 5666 5661 5656 5650 5645 5641 5636 5632 5628 5623 5620 5617 5614 5611 5608 5606 5604 5603 5602 5602 5602
5754 5751 5748 5745 5742 5738 5734 5731 5727 5723 5720 5716 5711 5707 5702 5697 5692 5687 5681 5676 5670 5665 5660 5655 5649 5644 5639 5634 5629 5625 5620 5616 5612 5608 5605 5602 5599 5597 5595 5593 5592 5592 5592
5751 5748 5746 5742 5739 5735 5732 5728 5724 5720 5717 5713 5708 5703 5698 5693 5687 5682 5676 5671 5665 5660 5655 5649 5644 5638 5633 5628 5623 5618 5614 5609 5605 5601 5598 5594 5591 5589 5586 5585 5583 5583 5582
5748 5746 5743 5740 5736 5733 5729 5726 5722 5718 5714 5710 5705 5700 5695 5689 5683 5678 5672 5666 5661 5655 5649 5644 5638 5633 5628 5622 5617 5613 5608 5603 5599 5595 5591 5587 5584 5581 5579 5577 5575 5574 5574
5746 5744 5741 5738 5734 5731 5727 5724 5720 5716 5712 5707 5702 5696 5691 5685 5680 5674 5668 5662 5656 5651 5645 5639 5634 5628 5623 5617 5612 5607 5602 5597 5593 5588 5584 5581 5577 5574 5571 5569 5567 5566 5565
5744 5742 5739 5736 5732 5729 5725 5722 5718 5714 5709 5704 5699 5694 5688 5682 5676 5671 5665 5659 5653 5647 5641 5635 5630 5624 5618 5613 5607 5602 5597 5592 5587 5583 5579 5575 5571 5567 5564 5562 5560 5558 5557
5742 5740 5737 5734 5731 5727 5724 5720 5716 5712 5707 5702 5697 5691 5686 5679 5673 5667 5661 5655 5649 5643 5637 5631 5625 5620 5614 5608 5603 5598 5592 5587 5582 5578 5573 5569 5565 5561 5558 5555 5553 5551 5549
5740 5738 5735 5732 5729 5726 5722 5718 5714 5710 5706 5701 5695 5689 5683 5677 5670 5664 5658 5652 5646 5639 5633 5627 5622 5616 5610 5604 5599 5594 5588 5583 5578 5572 5568 5563 5559 5555 5552 5549 5547 5544 5543
5739 5736 5733 5731 5728 5725 5721 5717 5713 5709 5704 5699 5693 5687 5681 5674 5668 5662 5656 5649 5643 5637 5630 5624 5618 5612 5607 5601 5596 5590 5584 5579 5574 5568 5563 5558 5554 5550 5546 5543 5541 5539 5537
5737 5735 5732 5730 5727 5724 5720 5716 5712 5708 5703 5698 5692 5686 5680 5673 5667 5660 5654 5647 5641 5634 5628 5622 5616 5610 5604 5599 5593 5587 5581 5576 5570 5564 5559 5554 5549 5545 5542 5539 5536 5534 5531
5736 5734 5731 5729 5726 5723 5719 5715 5711 5706 5702 5697 5691 5685 5679 5672 5666 5659 5652 5646 5639 5632 5626 5620 5614 5608 5602 5596 5590 5584 5579 5573 5567 5561 5555 5551 5546 5542 5538 5535 5532 5529 5527
5735 5733 5730 5728 5725 5722 5718 5714 5710 5705 5701 5696 5690 5684 5678 5671 5665 5658 5651 5644 5637 5631 5624 5618 5612 5606 5600 5594 5588 5582 5576 5570 5564 5558 5552 5548 5543 5539 5535 5532 5528 5525 5523
5733 5732 5729 5727 5724 5721 5717 5714 5709 5705 5700 5695 5689 5683 5677 5671 5664 5657 5650 5643 5636 5629 5623 5617 5610 5604 5598 5592 5586 5580 5574 5568 5562 5556 5551 5546 5541 5537 5533 5529 5526 5523 5521
5732 5730 5728 5726 5723 5720 5717 5713 5709 5704 5700 5695 5689 5683 5677 5670 5664 5657 5650 5643 5636 5629 5622 5616 5609 5603 5597 5591 5585 5579 5573 5567 5561 5555 5549 5544 5540 5535 5531 5528 5524 5521 5519
5730 5729 5727 5724 5722 5719 5716 5712 5708 5704 5699 5694 5689 5683 5677 5670 5663 5656 5649 5642 5635 5628 5622 5615 5609 5603 5596 5590 5584 5578 5572 5566 5560 5554 5549 5544 5539 5534 5530 5527 5523 5520 5518
5729 5727 5725 5723 5720 5718 5715 5711 5707 5703 5699 5694 5688 5683 5677 5670 5664 5656 5649 5643 5635 5628 5622 5615 5609 5602 5596 5590 5584 5578 5572 5566 5560 5554 5549 5543 5539 5534 5530 5526 5523 5520 5517
5727 5725 5723 5721 5719 5716 5713 5710 5706 5702 5698 5693 5688 5682 5676 5670 5664 5657 5650 5643 5636 5629 5622 5616 5609 5603 5596 5590 5583 5577 5571 5565 5560 5554 5549 5543 5538 5534 5530 5526 5523 5520 5517
5725 5724 5722 5720 5717 5715 5712 5709 5705 5701 5697 5692 5687 5682 5676 5670 5664 5657 5650 5644 5637 5630 5623 5616 5610 5603 5596 5589 5583 5577 5571 5565 5559 5554 5549 5543 5538 5534 5529 5526 5522 5519 5516
5723 5722 5720 5718 5715 5713 5710 5707 5704 5700 5696 5692 5687 5682 5676 5670 5664 5658 5651 5644 5637 5630 5623 5617 5610 5603 5596 5590 5583 5577 5571 5565 5560 5554 5548 5543 5538 5533 5529 5525 5522 5518 5515